Hourly Data Report for October 06, 2015

All times are specified in Local Standard Time (LST). Add 1 hour to adjust for Daylight Saving Time where and when it is observed.

WINNIPEG A CS
MANITOBA

49°55'00.000" N
97°14'58.000" W
238.70 m
502S001
71849
XWG

Download Data

Hourly Data (October 2015)
Hourly Data Report for October 6, 2015
Temp Definition
°C
Dew Point Temp Definition
°C
Rel Hum Definition
%
Wind Dir Definition
10's deg

Wind Spd Definition
km/h
Visibility Definition
km
Stn Press Definition
kPa
Hmdx Definition


Wind Chill Definition


Weather Definition


TIME
00:00 6.8 4.8 87 25 15   98.96     LegendNANA
01:00 7.0 4.7 85 26 14   98.95     LegendNANA
02:00 7.0 4.9 86 26 13   98.96     LegendNANA
03:00 7.0 4.0 81 28 21   98.97     LegendNANA
04:00 5.7 2.7 81 28 16   99.01     LegendNANA
05:00 4.8 1.6 80 27 16   99.05     LegendNANA
06:00 3.7 1.3 84 27 15   99.08     LegendNANA
07:00 4.0 1.7 85 29 16   99.13     LegendNANA
08:00 4.8 2.7 86 29 15   99.18     LegendNANA
09:00 6.9 3.3 78 29 18   99.24     LegendNANA
10:00 8.2 3.6 72 30 17   99.28     LegendNANA
11:00 9.6 3.4 65 30 17   99.29     LegendNANA
12:00 11.2 3.4 59 31 18   99.30     LegendNANA
13:00 12.1 0.9 46 29 23   99.27     LegendNANA
14:00 12.6 0.7 44 30 23   99.26     LegendNANA
15:00 12.3 0.1 43 32 29   99.27     LegendNANA
16:00 11.6 -2.0 39 32 29   99.30     LegendNANA
17:00 10.4 -2.6 40 32 26   99.32     LegendNANA
18:00 6.3 -1.2 59 34 11   99.33     LegendNANA
19:00 2.3 -1.9 74 35 14   99.34     LegendNANA
20:00 2.1 -1.7 76 34 11   99.36     LegendNANA
21:00 0.8 -2.4 79 1 8   99.40     LegendNANA
22:00 1.2 -2.3 78 35 7   99.44     LegendNANA
23:00 0.9 -2.0 81 36 4   99.43     LegendNANA

Notes on Data Quality.

Legend

  • E = Estimated
  • M = Missing
  • NA = Not Available
  • ‡ = Partner data that is not subject to review by the National Climate Archives
Date modified: